This is the latest recevied weather packets stored in our database for station/object IK2ILW-4. If no packets are shown the sender has not sent any weather packets the latest 10 day(s).
| Time | Temp. | Humidity | Pressure | Rain* | Wind** | Luminosity | Snow |
|---|---|---|---|---|---|---|---|
| 1777747665 | 10.56° C | 60% | 1023.4 hPa | 0 mm | - | 0 W/m² | - |
| 1777747360 | 11.11° C | 60% | 1023.3 hPa | 0 mm | - | 0 W/m² | - |
| 1777747057 | 11.11° C | 59% | 1023.3 hPa | 0 mm | - | 0 W/m² | - |
| 1777746753 | 11.11° C | 59% | 1023.3 hPa | 0 mm | - | 0 W/m² | - |
| 1777746453 | 11.67° C | 59% | 1023.1 hPa | 0 mm | - | 0 W/m² | - |
| 1777746173 | 11.67° C | 58% | 1023.1 hPa | 0 mm | - | 5 W/m² | - |
| 1777745867 | 11.67° C | 59% | 1023.1 hPa | 0 mm | - | 7 W/m² | - |
| 1777745563 | 11.67° C | 59% | 1023.3 hPa | 0 mm | - | 9 W/m² | - |
| 1777745259 | 11.67° C | 57% | 1023.3 hPa | 0 mm | - | 12 W/m² | - |
| 1777744956 | 12.22° C | 57% | 1023.3 hPa | 0 mm | - | 14 W/m² | - |
| 1777744656 | 12.78° C | 57% | 1023.1 hPa | 0 mm | - | 18 W/m² | - |
| 1777744359 | 12.78° C | 57% | 1023.1 hPa | 0 mm | - | 26 W/m² | - |
| 1777744056 | 12.78° C | 55% | 1023.1 hPa | 0 mm | - | 37 W/m² | - |
| 1777743756 | 12.78° C | 56% | 1023 hPa | 0 mm | - | 40 W/m² | - |
| 1777743454 | 12.78° C | 56% | 1023 hPa | 0 mm | - | 49 W/m² | - |
| 1777743169 | 13.33° C | 55% | 1023 hPa | 0 mm | - | 62 W/m² | - |
| 1777742866 | 13.33° C | 56% | 1023 hPa | 0 mm | - | 70 W/m² | - |
| 1777742564 | 13.89° C | 54% | 1023 hPa | 0 mm | - | 88 W/m² | - |
| 1777742265 | 13.33° C | 56% | 1023 hPa | 0 mm | - | 98 W/m² | - |
| 1777741965 | 12.78° C | 58% | 1023.1 hPa | 0 mm | - | 121 W/m² | - |
| 1777741665 | 12.78° C | 56% | 1023.1 hPa | 0 mm | - | 139 W/m² | - |
| 1777741359 | 13.33° C | 55% | 1023.1 hPa | 0 mm | - | 155 W/m² | - |
| 1777741056 | 14.44° C | 54% | 1023.1 hPa | 0 mm | - | 153 W/m² | - |
| 1777740752 | 14.44° C | 53% | 1023.1 hPa | 0 mm | - | 90 W/m² | - |
| 1777740453 | 15° C | 52% | 1023.1 hPa | 0 mm | - | 207 W/m² | - |
* Rain since midnight (hover to see other rain measurements)
** Current wind speed in m/s (hover to see current wind gust speed)